Tracking 26308 objects as of 30-Nov-2022
HD Live streaming from Space Station
objects crossing your sky now

COSMOS 1408 DEB

Track COSMOS 1408 DEB now!
10-day predictions


NORAD ID: 50742
Int'l Code: 1982-092ARS
Perigee: 408.8 km
Apogee: 427.5 km
Inclination: 82.6 °
Period: 92.8 minutes
Semi major axis: 6789 km
RCS: Unknown
Launch date: September 16, 1982
Source: Commonwealth of Independent States (former USSR) (CIS)
Launch site: PLESETSK MISSILE AND SPACE COMPLEX (PKMTR)

Note: This is SATELLITE DEBRIS
aabbcc
Your satellite tracking list
Your tracking list is empty




NASA's NSSDC Master Catalog

Two Line Element Set (TLE):
1 50742U 82092ARS 22333.64154353  .00077177  00000-0  12699-2 0  9991
2 50742  82.6362 104.7235 0013830 101.5868 258.6937 15.51955132 51680
Source of the keplerian elements: AFSPC